<?xml version="1.0" encoding="UTF-8" standalone="no" ?>
<gpx xmlns="http://www.topografix.com/GPX/1/1" xmlns:xsi="http://www.w3.org/2001/XMLSchema-instance" xsi:schemaLocation="http://www.topografix.com/GPX/1/1 http://www.topografix.com/GPX/1/1/gpx.xsd" version="1.1" creator="VisuGPX - https://www.visugpx.com">
  <metadata>
    <name>Moulin de Javon et les Baumes des Eymians et de Roustan</name>
  </metadata>
  <wpt lat="43.96443" lon="5.33433">
    <ele>424</ele>
    <name><![CDATA[Stationnement sur la D943 Borne du Grand Marignon]]></name>
  </wpt>
  <wpt lat="43.97085" lon="5.33427">
    <ele>566</ele>
    <name><![CDATA[À la première intersection, à droite]]></name>
  </wpt>
  <wpt lat="43.97179" lon="5.33499">
    <ele>576</ele>
    <name><![CDATA[Prendre à droite]]></name>
  </wpt>
  <wpt lat="43.97388" lon="5.34199">
    <ele>572</ele>
    <name><![CDATA[Cairn, à gauche]]></name>
  </wpt>
  <wpt lat="43.97543" lon="5.34246">
    <ele>602</ele>
    <name><![CDATA[À la patte d'oie, à gauche]]></name>
  </wpt>
  <wpt lat="43.98427" lon="5.34201">
    <ele>738</ele>
    <name><![CDATA[Bifurcation du Moulin de Javon ]]></name>
  </wpt>
  <wpt lat="43.98585" lon="5.34288">
    <ele>737</ele>
    <name><![CDATA[Moulin de Javon ]]></name>
  </wpt>
  <wpt lat="43.9858" lon="5.34465">
    <ele>738</ele>
    <name><![CDATA[Belvédère]]></name>
  </wpt>
  <wpt lat="43.98423" lon="5.34215">
    <ele>737</ele>
    <name><![CDATA[Continuer tout droit]]></name>
  </wpt>
  <wpt lat="43.9787" lon="5.34457">
    <ele>649</ele>
    <name><![CDATA[Ignorez les marches en pierre à droite]]></name>
  </wpt>
  <wpt lat="43.97269" lon="5.34222">
    <ele>525</ele>
    <name><![CDATA[Aller-retour Baume Roustan]]></name>
  </wpt>
  <wpt lat="43.9709" lon="5.35295">
    <ele>548</ele>
    <name><![CDATA[Deuxième sentier à gauche]]></name>
  </wpt>
  <wpt lat="43.96864" lon="5.35377">
    <ele>608</ele>
    <name><![CDATA[Carrefour deuxième boucle]]></name>
  </wpt>
  <wpt lat="43.96926" lon="5.35779">
    <ele>667</ele>
    <name><![CDATA[À droite en longeant le champs]]></name>
  </wpt>
  <wpt lat="43.96526" lon="5.3474">
    <ele>640</ele>
    <name><![CDATA[À droite vers Vévouil]]></name>
  </wpt>
  <wpt lat="43.96402" lon="5.33527">
    <ele>420</ele>
    <name><![CDATA[Pont des gorges de Marignon]]></name>
  </wpt>
  <wpt lat="43.96442" lon="5.33436">
    <ele>424</ele>
    <name><![CDATA[ Stationnement sur la D943 Borne du Grand Marignon]]></name>
  </wpt>
  <trk>
    <name><![CDATA[Moulin de Javon et les Baumes des Eymians et de Roustan]]></name>
    <trkseg>
      <trkpt lat="43.96443" lon="5.33433">
        <ele>424</ele>
        <time>2017-09-01T11:05:22+02:00</time>
      </trkpt>
      <trkpt lat="43.96464" lon="5.33435">
        <ele>428</ele>
        <time>2017-09-01T11:05:22+02:00</time>
      </trkpt>
      <trkpt lat="43.96506" lon="5.3346">
        <ele>432</ele>
        <time>2017-09-01T11:05:22+02:00</time>
      </trkpt>
      <trkpt lat="43.96517" lon="5.33469">
        <ele>433</ele>
        <time>2017-09-01T11:05:22+02:00</time>
      </trkpt>
      <trkpt lat="43.96534" lon="5.33477">
        <ele>436</ele>
        <time>2017-09-01T11:06:45+02:00</time>
      </trkpt>
      <trkpt lat="43.96555" lon="5.33485">
        <ele>440</ele>
        <time>2017-09-01T11:06:45+02:00</time>
      </trkpt>
      <trkpt lat="43.96571" lon="5.33493">
        <ele>444</ele>
        <time>2017-09-01T11:07:21+02:00</time>
      </trkpt>
      <trkpt lat="43.96589" lon="5.33497">
        <ele>448</ele>
        <time>2017-09-01T11:07:40+02:00</time>
      </trkpt>
      <trkpt lat="43.96607" lon="5.33506">
        <ele>452</ele>
        <time>2017-09-01T11:08:04+02:00</time>
      </trkpt>
      <trkpt lat="43.96625" lon="5.33519">
        <ele>455</ele>
        <time>2017-09-01T11:08:38+02:00</time>
      </trkpt>
      <trkpt lat="43.96641" lon="5.33538">
        <ele>458</ele>
        <time>2020-03-13T08:29:09+01:00</time>
      </trkpt>
      <trkpt lat="43.9666" lon="5.33553">
        <ele>464</ele>
        <time>2020-03-13T08:29:14+01:00</time>
      </trkpt>
      <trkpt lat="43.96669" lon="5.3357">
        <ele>466</ele>
        <time>2017-09-01T11:10:12+02:00</time>
      </trkpt>
      <trkpt lat="43.96683" lon="5.33587">
        <ele>468</ele>
        <time>2017-09-01T11:10:32+02:00</time>
      </trkpt>
      <trkpt lat="43.96699" lon="5.33603">
        <ele>470</ele>
        <time>2017-09-01T11:10:52+02:00</time>
      </trkpt>
      <trkpt lat="43.96718" lon="5.33611">
        <ele>473</ele>
        <time>2017-09-01T11:11:08+02:00</time>
      </trkpt>
      <trkpt lat="43.96734" lon="5.33596">
        <ele>479</ele>
        <time>2017-09-01T11:11:48+02:00</time>
      </trkpt>
      <trkpt lat="43.96756" lon="5.3359">
        <ele>484</ele>
        <time>2017-09-01T11:12:12+02:00</time>
      </trkpt>
      <trkpt lat="43.96778" lon="5.33587">
        <ele>488</ele>
        <time>2017-09-01T11:12:45+02:00</time>
      </trkpt>
      <trkpt lat="43.96795" lon="5.33573">
        <ele>492</ele>
        <time>2017-09-01T11:13:29+02:00</time>
      </trkpt>
      <trkpt lat="43.96815" lon="5.33575">
        <ele>495</ele>
        <time>2017-09-01T11:13:48+02:00</time>
      </trkpt>
      <trkpt lat="43.96832" lon="5.33565">
        <ele>498</ele>
        <time>2017-09-01T11:14:29+02:00</time>
      </trkpt>
      <trkpt lat="43.96848" lon="5.33554">
        <ele>502</ele>
        <time>2017-09-01T11:15:04+02:00</time>
      </trkpt>
      <trkpt lat="43.96859" lon="5.33538">
        <ele>506</ele>
        <time>2017-09-01T11:15:52+02:00</time>
      </trkpt>
      <trkpt lat="43.96861" lon="5.3351">
        <ele>510</ele>
        <time>2017-09-01T11:15:52+02:00</time>
      </trkpt>
      <trkpt lat="43.96852" lon="5.33481">
        <ele>512</ele>
        <time>2017-09-01T11:16:08+02:00</time>
      </trkpt>
      <trkpt lat="43.96854" lon="5.33452">
        <ele>514</ele>
        <time>2017-09-01T11:16:42+02:00</time>
      </trkpt>
      <trkpt lat="43.96874" lon="5.33438">
        <ele>520</ele>
        <time>2017-09-01T11:17:16+02:00</time>
      </trkpt>
      <trkpt lat="43.96886" lon="5.33416">
        <ele>525</ele>
        <time>2017-09-01T11:17:52+02:00</time>
      </trkpt>
      <trkpt lat="43.96906" lon="5.3341">
        <ele>530</ele>
        <time>2017-09-01T11:18:37+02:00</time>
      </trkpt>
      <trkpt lat="43.96923" lon="5.33392">
        <ele>535</ele>
        <time>2017-09-01T11:18:56+02:00</time>
      </trkpt>
      <trkpt lat="43.9693" lon="5.33366">
        <ele>538</ele>
        <time>2017-09-01T11:19:10+02:00</time>
      </trkpt>
      <trkpt lat="43.96947" lon="5.33355">
        <ele>543</ele>
        <time>2017-09-01T11:20:04+02:00</time>
      </trkpt>
      <trkpt lat="43.96969" lon="5.3336">
        <ele>548</ele>
        <time>2020-03-13T08:31:04+01:00</time>
      </trkpt>
      <trkpt lat="43.96983" lon="5.33344">
        <ele>552</ele>
        <time>2020-03-13T08:31:09+01:00</time>
      </trkpt>
      <trkpt lat="43.96995" lon="5.33338">
        <ele>555</ele>
        <time>2017-09-01T11:21:57+02:00</time>
      </trkpt>
      <trkpt lat="43.9702" lon="5.33358">
        <ele>559</ele>
        <time>2017-09-01T11:21:57+02:00</time>
      </trkpt>
      <trkpt lat="43.97039" lon="5.33373">
        <ele>561</ele>
        <time>2017-09-01T11:22:24+02:00</time>
      </trkpt>
      <trkpt lat="43.97056" lon="5.3339">
        <ele>563</ele>
        <time>2017-09-01T11:22:39+02:00</time>
      </trkpt>
      <trkpt lat="43.97071" lon="5.33408">
        <ele>565</ele>
        <time>2017-09-01T11:22:56+02:00</time>
      </trkpt>
      <trkpt lat="43.97085" lon="5.33427">
        <ele>566</ele>
        <time>2017-09-01T11:23:30+02:00</time>
      </trkpt>
      <trkpt lat="43.97096" lon="5.33442">
        <ele>566</ele>
        <time>2017-09-01T11:23:30+02:00</time>
      </trkpt>
      <trkpt lat="43.97118" lon="5.33459">
        <ele>567</ele>
        <time>2017-09-01T11:24:26+02:00</time>
      </trkpt>
      <trkpt lat="43.97138" lon="5.33474">
        <ele>570</ele>
        <time>2017-09-01T11:24:42+02:00</time>
      </trkpt>
      <trkpt lat="43.97158" lon="5.33485">
        <ele>573</ele>
        <time>2017-09-01T11:25:00+02:00</time>
      </trkpt>
      <trkpt lat="43.9717" lon="5.33494">
        <ele>575</ele>
        <time>2020-03-13T08:32:04+01:00</time>
      </trkpt>
      <trkpt lat="43.97179" lon="5.33499">
        <ele>576</ele>
        <time>2017-09-01T11:25:44+02:00</time>
      </trkpt>
      <trkpt lat="43.97174" lon="5.33529">
        <ele>576</ele>
        <time>2017-09-01T11:26:00+02:00</time>
      </trkpt>
      <trkpt lat="43.97167" lon="5.33546">
        <ele>575</ele>
        <time>2017-09-01T11:26:17+02:00</time>
      </trkpt>
      <trkpt lat="43.97158" lon="5.33573">
        <ele>573</ele>
        <time>2017-09-01T11:26:51+02:00</time>
      </trkpt>
      <trkpt lat="43.97152" lon="5.336">
        <ele>571</ele>
        <time>2017-09-01T11:27:12+02:00</time>
      </trkpt>
      <trkpt lat="43.97152" lon="5.33628">
        <ele>570</ele>
        <time>2017-09-01T11:27:46+02:00</time>
      </trkpt>
      <trkpt lat="43.97155" lon="5.33659">
        <ele>570</ele>
        <time>2017-09-01T11:28:06+02:00</time>
      </trkpt>
      <trkpt lat="43.97159" lon="5.33685">
        <ele>567</ele>
        <time>2017-09-01T11:28:22+02:00</time>
      </trkpt>
      <trkpt lat="43.97175" lon="5.33702">
        <ele>567</ele>
        <time>2017-09-01T11:28:40+02:00</time>
      </trkpt>
      <trkpt lat="43.97192" lon="5.33716">
        <ele>568</ele>
        <time>2017-09-01T11:28:57+02:00</time>
      </trkpt>
      <trkpt lat="43.97206" lon="5.33724">
        <ele>570</ele>
        <time>2017-09-01T11:29:12+02:00</time>
      </trkpt>
      <trkpt lat="43.97201" lon="5.3375">
        <ele>565</ele>
        <time>2017-09-01T11:30:14+02:00</time>
      </trkpt>
      <trkpt lat="43.97207" lon="5.33772">
        <ele>564</ele>
        <time>2017-09-01T11:30:14+02:00</time>
      </trkpt>
      <trkpt lat="43.97207" lon="5.3378">
        <ele>564</ele>
        <time>2017-09-01T11:31:11+02:00</time>
      </trkpt>
      <trkpt lat="43.97216" lon="5.33812">
        <ele>565</ele>
        <time>2017-09-01T11:31:11+02:00</time>
      </trkpt>
      <trkpt lat="43.97235" lon="5.33826">
        <ele>571</ele>
        <time>2017-09-01T11:31:30+02:00</time>
      </trkpt>
      <trkpt lat="43.97252" lon="5.33844">
        <ele>576</ele>
        <time>2017-09-01T11:32:10+02:00</time>
      </trkpt>
      <trkpt lat="43.97262" lon="5.33871">
        <ele>577</ele>
        <time>2017-09-01T11:32:32+02:00</time>
      </trkpt>
      <trkpt lat="43.97264" lon="5.33896">
        <ele>576</ele>
        <time>2017-09-01T11:32:50+02:00</time>
      </trkpt>
      <trkpt lat="43.97267" lon="5.33916">
        <ele>576</ele>
        <time>2017-09-01T11:33:07+02:00</time>
      </trkpt>
      <trkpt lat="43.97273" lon="5.33945">
        <ele>575</ele>
        <time>2017-09-01T11:33:43+02:00</time>
      </trkpt>
      <trkpt lat="43.97287" lon="5.33965">
        <ele>577</ele>
        <time>2017-09-01T11:34:01+02:00</time>
      </trkpt>
      <trkpt lat="43.97306" lon="5.33982">
        <ele>581</ele>
        <time>2017-09-01T11:34:35+02:00</time>
      </trkpt>
      <trkpt lat="43.97306" lon="5.34006">
        <ele>580</ele>
        <time>2017-09-01T11:34:57+02:00</time>
      </trkpt>
      <trkpt lat="43.97307" lon="5.34032">
        <ele>579</ele>
        <time>2017-09-01T11:35:20+02:00</time>
      </trkpt>
      <trkpt lat="43.97317" lon="5.34052">
        <ele>582</ele>
        <time>2017-09-01T11:35:36+02:00</time>
      </trkpt>
      <trkpt lat="43.97328" lon="5.34105">
        <ele>579</ele>
        <time>2017-09-01T11:36:37+02:00</time>
      </trkpt>
      <trkpt lat="43.97348" lon="5.34118">
        <ele>580</ele>
        <time>2017-09-01T11:37:51+02:00</time>
      </trkpt>
      <trkpt lat="43.97362" lon="5.34134">
        <ele>580</ele>
        <time>2017-09-01T11:38:14+02:00</time>
      </trkpt>
      <trkpt lat="43.97375" lon="5.34159">
        <ele>577</ele>
        <time>2017-09-01T11:38:54+02:00</time>
      </trkpt>
      <trkpt lat="43.97387" lon="5.34181">
        <ele>575</ele>
        <time>2017-09-01T11:39:40+02:00</time>
      </trkpt>
      <trkpt lat="43.97388" lon="5.34199">
        <ele>572</ele>
        <time>2017-09-01T11:40:22+02:00</time>
      </trkpt>
      <trkpt lat="43.97409" lon="5.34211">
        <ele>576</ele>
        <time>2017-09-01T11:42:51+02:00</time>
      </trkpt>
      <trkpt lat="43.97424" lon="5.34217">
        <ele>579</ele>
        <time>2017-09-01T11:43:16+02:00</time>
      </trkpt>
      <trkpt lat="43.97439" lon="5.34229">
        <ele>581</ele>
        <time>2017-09-01T11:44:18+02:00</time>
      </trkpt>
      <trkpt lat="43.9745" lon="5.34236">
        <ele>583</ele>
        <time>2017-09-01T11:44:18+02:00</time>
      </trkpt>
      <trkpt lat="43.9747" lon="5.34244">
        <ele>586</ele>
        <time>2017-09-01T11:44:51+02:00</time>
      </trkpt>
      <trkpt lat="43.97491" lon="5.34249">
        <ele>591</ele>
        <time>2017-09-01T11:45:08+02:00</time>
      </trkpt>
      <trkpt lat="43.97511" lon="5.34247">
        <ele>595</ele>
        <time>2017-09-01T11:47:15+02:00</time>
      </trkpt>
      <trkpt lat="43.97527" lon="5.3424">
        <ele>599</ele>
        <time>2017-09-01T11:47:33+02:00</time>
      </trkpt>
      <trkpt lat="43.97543" lon="5.34246">
        <ele>602</ele>
        <time>2017-09-01T11:48:24+02:00</time>
      </trkpt>
      <trkpt lat="43.97558" lon="5.3423">
        <ele>606</ele>
        <time>2017-09-01T11:48:24+02:00</time>
      </trkpt>
      <trkpt lat="43.97575" lon="5.34219">
        <ele>609</ele>
        <time>2017-09-01T11:48:40+02:00</time>
      </trkpt>
      <trkpt lat="43.97592" lon="5.34206">
        <ele>613</ele>
        <time>2017-09-01T11:49:00+02:00</time>
      </trkpt>
      <trkpt lat="43.9761" lon="5.34195">
        <ele>617</ele>
        <time>2017-09-01T11:49:38+02:00</time>
      </trkpt>
      <trkpt lat="43.97626" lon="5.34182">
        <ele>621</ele>
        <time>2017-09-01T11:49:56+02:00</time>
      </trkpt>
      <trkpt lat="43.97647" lon="5.34172">
        <ele>625</ele>
        <time>2017-09-01T11:50:12+02:00</time>
      </trkpt>
      <trkpt lat="43.97667" lon="5.34167">
        <ele>630</ele>
        <time>2017-09-01T11:50:48+02:00</time>
      </trkpt>
      <trkpt lat="43.97686" lon="5.34163">
        <ele>634</ele>
        <time>2017-09-01T11:51:04+02:00</time>
      </trkpt>
      <trkpt lat="43.977" lon="5.34181">
        <ele>636</ele>
        <time>2017-09-01T11:51:39+02:00</time>
      </trkpt>
      <trkpt lat="43.9771" lon="5.34209">
        <ele>635</ele>
        <time>2017-09-01T11:52:30+02:00</time>
      </trkpt>
      <trkpt lat="43.97726" lon="5.34211">
        <ele>639</ele>
        <time>2017-09-01T11:53:28+02:00</time>
      </trkpt>
      <trkpt lat="43.97742" lon="5.34195">
        <ele>644</ele>
        <time>2017-09-01T11:53:28+02:00</time>
      </trkpt>
      <trkpt lat="43.97753" lon="5.34174">
        <ele>649</ele>
        <time>2017-09-01T11:53:47+02:00</time>
      </trkpt>
      <trkpt lat="43.97768" lon="5.34163">
        <ele>653</ele>
        <time>2017-09-01T11:54:08+02:00</time>
      </trkpt>
      <trkpt lat="43.97785" lon="5.34144">
        <ele>656</ele>
        <time>2017-09-01T11:54:52+02:00</time>
      </trkpt>
      <trkpt lat="43.97806" lon="5.34136">
        <ele>661</ele>
        <time>2017-09-01T11:55:33+02:00</time>
      </trkpt>
      <trkpt lat="43.97824" lon="5.34148">
        <ele>665</ele>
        <time>2017-09-01T11:56:15+02:00</time>
      </trkpt>
      <trkpt lat="43.97842" lon="5.34157">
        <ele>669</ele>
        <time>2017-09-01T11:56:32+02:00</time>
      </trkpt>
      <trkpt lat="43.97863" lon="5.34146">
        <ele>673</ele>
        <time>2017-09-01T11:57:04+02:00</time>
      </trkpt>
      <trkpt lat="43.97882" lon="5.34137">
        <ele>677</ele>
        <time>2017-09-01T11:58:13+02:00</time>
      </trkpt>
      <trkpt lat="43.97902" lon="5.34137">
        <ele>681</ele>
        <time>2017-09-01T11:58:13+02:00</time>
      </trkpt>
      <trkpt lat="43.97908" lon="5.34162">
        <ele>682</ele>
        <time>2017-09-01T11:58:29+02:00</time>
      </trkpt>
      <trkpt lat="43.9792" lon="5.34182">
        <ele>683</ele>
        <time>2017-09-01T11:58:48+02:00</time>
      </trkpt>
      <trkpt lat="43.97937" lon="5.34198">
        <ele>684</ele>
        <time>2017-09-01T11:59:25+02:00</time>
      </trkpt>
      <trkpt lat="43.97957" lon="5.34206">
        <ele>686</ele>
        <time>2017-09-01T11:59:44+02:00</time>
      </trkpt>
      <trkpt lat="43.97976" lon="5.34204">
        <ele>690</ele>
        <time>2017-09-01T12:00:03+02:00</time>
      </trkpt>
      <trkpt lat="43.97996" lon="5.34208">
        <ele>692</ele>
        <time>2017-09-01T12:00:43+02:00</time>
      </trkpt>
      <trkpt lat="43.98017" lon="5.34207">
        <ele>695</ele>
        <time>2017-09-01T12:01:04+02:00</time>
      </trkpt>
      <trkpt lat="43.98037" lon="5.34213">
        <ele>696</ele>
        <time>2017-09-01T12:01:29+02:00</time>
      </trkpt>
      <trkpt lat="43.98056" lon="5.3421">
        <ele>698</ele>
        <time>2017-09-01T12:01:48+02:00</time>
      </trkpt>
      <trkpt lat="43.98065" lon="5.3419">
        <ele>701</ele>
        <time>2017-09-01T12:04:22+02:00</time>
      </trkpt>
      <trkpt lat="43.98077" lon="5.34172">
        <ele>705</ele>
        <time>2017-09-01T12:04:41+02:00</time>
      </trkpt>
      <trkpt lat="43.98092" lon="5.34153">
        <ele>709</ele>
        <time>2017-09-01T12:04:56+02:00</time>
      </trkpt>
      <trkpt lat="43.98103" lon="5.34132">
        <ele>713</ele>
        <time>2017-09-01T12:05:16+02:00</time>
      </trkpt>
      <trkpt lat="43.98113" lon="5.34108">
        <ele>717</ele>
        <time>2017-09-01T12:05:51+02:00</time>
      </trkpt>
      <trkpt lat="43.98135" lon="5.34103">
        <ele>721</ele>
        <time>2017-09-01T12:06:08+02:00</time>
      </trkpt>
      <trkpt lat="43.98152" lon="5.34105">
        <ele>724</ele>
        <time>2017-09-01T12:06:41+02:00</time>
      </trkpt>
      <trkpt lat="43.98172" lon="5.34103">
        <ele>728</ele>
        <time>2017-09-01T12:06:55+02:00</time>
      </trkpt>
      <trkpt lat="43.98187" lon="5.34101">
        <ele>730</ele>
        <time>2017-09-01T12:07:13+02:00</time>
      </trkpt>
      <trkpt lat="43.98203" lon="5.34112">
        <ele>730</ele>
        <time>2017-09-01T12:07:33+02:00</time>
      </trkpt>
      <trkpt lat="43.98208" lon="5.34119">
        <ele>730</ele>
        <time>2017-09-01T12:07:33+02:00</time>
      </trkpt>
      <trkpt lat="43.98229" lon="5.34154">
        <ele>730</ele>
        <time>2017-09-01T12:08:34+02:00</time>
      </trkpt>
      <trkpt lat="43.98247" lon="5.34154">
        <ele>732</ele>
        <time>2017-09-01T12:08:34+02:00</time>
      </trkpt>
      <trkpt lat="43.98265" lon="5.34153">
        <ele>734</ele>
        <time>2017-09-01T12:08:53+02:00</time>
      </trkpt>
      <trkpt lat="43.98284" lon="5.34168">
        <ele>734</ele>
        <time>2017-09-01T12:09:30+02:00</time>
      </trkpt>
      <trkpt lat="43.98294" lon="5.34172">
        <ele>735</ele>
        <time>2017-09-01T12:09:30+02:00</time>
      </trkpt>
      <trkpt lat="43.98316" lon="5.34198">
        <ele>734</ele>
        <time>2017-09-01T12:10:24+02:00</time>
      </trkpt>
      <trkpt lat="43.98328" lon="5.34182">
        <ele>737</ele>
        <time>2017-09-01T12:10:24+02:00</time>
      </trkpt>
      <trkpt lat="43.98347" lon="5.34189">
        <ele>737</ele>
        <time>2017-09-01T12:10:40+02:00</time>
      </trkpt>
      <trkpt lat="43.98366" lon="5.34191">
        <ele>737</ele>
        <time>2017-09-01T12:10:56+02:00</time>
      </trkpt>
      <trkpt lat="43.98385" lon="5.34179">
        <ele>739</ele>
        <time>2017-09-01T12:11:16+02:00</time>
      </trkpt>
      <trkpt lat="43.98405" lon="5.34193">
        <ele>739</ele>
        <time>2017-09-01T12:11:52+02:00</time>
      </trkpt>
      <trkpt lat="43.98427" lon="5.34201">
        <ele>738</ele>
        <time>2020-03-13T08:39:54+01:00</time>
      </trkpt>
      <trkpt lat="43.98429" lon="5.34207">
        <ele>738</ele>
        <time>2017-09-01T12:13:20+02:00</time>
      </trkpt>
      <trkpt lat="43.98454" lon="5.342">
        <ele>738</ele>
        <time>2020-03-13T08:40:04+01:00</time>
      </trkpt>
      <trkpt lat="43.98476" lon="5.34204">
        <ele>737</ele>
        <time>2017-09-01T12:13:20+02:00</time>
      </trkpt>
      <trkpt lat="43.98487" lon="5.34215">
        <ele>736</ele>
        <time>2020-03-13T08:40:14+01:00</time>
      </trkpt>
      <trkpt lat="43.98502" lon="5.34223">
        <ele>736</ele>
        <time>2020-03-13T08:40:19+01:00</time>
      </trkpt>
      <trkpt lat="43.98524" lon="5.34226">
        <ele>735</ele>
        <time>2020-03-13T08:40:24+01:00</time>
      </trkpt>
      <trkpt lat="43.98547" lon="5.34229">
        <ele>735</ele>
        <time>2017-09-01T12:13:20+02:00</time>
      </trkpt>
      <trkpt lat="43.98572" lon="5.3425">
        <ele>736</ele>
        <time>2017-09-01T12:13:20+02:00</time>
      </trkpt>
      <trkpt lat="43.9858" lon="5.34264">
        <ele>736</ele>
        <time>2020-03-13T08:40:39+01:00</time>
      </trkpt>
      <trkpt lat="43.98585" lon="5.34288">
        <ele>737</ele>
        <time>2017-09-01T12:13:20+02:00</time>
      </trkpt>
      <trkpt lat="43.98594" lon="5.34319">
        <ele>738</ele>
        <time>2017-09-01T12:13:20+02:00</time>
      </trkpt>
      <trkpt lat="43.98588" lon="5.34334">
        <ele>738</ele>
        <time>2017-09-01T12:13:20+02:00</time>
      </trkpt>
      <trkpt lat="43.98588" lon="5.34353">
        <ele>740</ele>
        <time>2017-09-01T12:13:20+02:00</time>
      </trkpt>
      <trkpt lat="43.98604" lon="5.34365">
        <ele>741</ele>
        <time>2017-09-01T12:13:20+02:00</time>
      </trkpt>
      <trkpt lat="43.98606" lon="5.34383">
        <ele>743</ele>
        <time>2017-09-01T12:13:20+02:00</time>
      </trkpt>
      <trkpt lat="43.986" lon="5.34403">
        <ele>745</ele>
        <time>2020-03-13T08:41:14+01:00</time>
      </trkpt>
      <trkpt lat="43.9859" lon="5.34422">
        <ele>744</ele>
        <time>2017-09-01T12:13:20+02:00</time>
      </trkpt>
      <trkpt lat="43.98585" lon="5.34446">
        <ele>741</ele>
        <time>2020-03-13T08:41:24+01:00</time>
      </trkpt>
      <trkpt lat="43.9858" lon="5.34465">
        <ele>738</ele>
        <time>2017-09-01T12:13:20+02:00</time>
      </trkpt>
      <trkpt lat="43.9859" lon="5.34444">
        <ele>742</ele>
        <time>2020-03-13T08:41:34+01:00</time>
      </trkpt>
      <trkpt lat="43.9859" lon="5.34421">
        <ele>744</ele>
        <time>2020-03-13T08:41:39+01:00</time>
      </trkpt>
      <trkpt lat="43.986" lon="5.34403">
        <ele>745</ele>
        <time>2020-03-13T08:41:44+01:00</time>
      </trkpt>
      <trkpt lat="43.98607" lon="5.34383">
        <ele>744</ele>
        <time>2017-09-01T12:13:20+02:00</time>
      </trkpt>
      <trkpt lat="43.98606" lon="5.34363">
        <ele>741</ele>
        <time>2017-09-01T12:13:20+02:00</time>
      </trkpt>
      <trkpt lat="43.9859" lon="5.34352">
        <ele>740</ele>
        <time>2017-09-01T12:13:20+02:00</time>
      </trkpt>
      <trkpt lat="43.98589" lon="5.34336">
        <ele>738</ele>
        <time>2017-09-01T12:13:20+02:00</time>
      </trkpt>
      <trkpt lat="43.98597" lon="5.34319">
        <ele>738</ele>
        <time>2017-09-01T12:13:20+02:00</time>
      </trkpt>
      <trkpt lat="43.98586" lon="5.34286">
        <ele>737</ele>
        <time>2017-09-01T12:13:20+02:00</time>
      </trkpt>
      <trkpt lat="43.98581" lon="5.34263">
        <ele>736</ele>
        <time>2020-03-13T08:42:19+01:00</time>
      </trkpt>
      <trkpt lat="43.98575" lon="5.34248">
        <ele>736</ele>
        <time>2017-09-01T12:13:20+02:00</time>
      </trkpt>
      <trkpt lat="43.98558" lon="5.34239">
        <ele>735</ele>
        <time>2020-03-13T08:42:29+01:00</time>
      </trkpt>
      <trkpt lat="43.98546" lon="5.34227">
        <ele>735</ele>
        <time>2017-09-01T12:13:20+02:00</time>
      </trkpt>
      <trkpt lat="43.98503" lon="5.3422">
        <ele>736</ele>
        <time>2020-03-13T08:42:39+01:00</time>
      </trkpt>
      <trkpt lat="43.98489" lon="5.34213">
        <ele>737</ele>
        <time>2020-03-13T08:42:44+01:00</time>
      </trkpt>
      <trkpt lat="43.98475" lon="5.34201">
        <ele>737</ele>
        <time>2017-09-01T12:13:20+02:00</time>
      </trkpt>
      <trkpt lat="43.98452" lon="5.34199">
        <ele>738</ele>
        <time>2020-03-13T08:42:54+01:00</time>
      </trkpt>
      <trkpt lat="43.98441" lon="5.34203">
        <ele>738</ele>
        <time>2017-09-01T12:13:20+02:00</time>
      </trkpt>
      <trkpt lat="43.98423" lon="5.34215">
        <ele>737</ele>
        <time>2017-09-01T12:13:20+02:00</time>
      </trkpt>
      <trkpt lat="43.98406" lon="5.34227">
        <ele>736</ele>
        <time>2017-09-01T12:14:21+02:00</time>
      </trkpt>
      <trkpt lat="43.98386" lon="5.34235">
        <ele>734</ele>
        <time>2017-09-01T12:14:36+02:00</time>
      </trkpt>
      <trkpt lat="43.98372" lon="5.34256">
        <ele>731</ele>
        <time>2017-09-01T12:14:52+02:00</time>
      </trkpt>
      <trkpt lat="43.9835" lon="5.34264">
        <ele>728</ele>
        <time>2017-09-01T12:17:26+02:00</time>
      </trkpt>
      <trkpt lat="43.98331" lon="5.34266">
        <ele>727</ele>
        <time>2017-09-01T12:19:11+02:00</time>
      </trkpt>
      <trkpt lat="43.98314" lon="5.34275">
        <ele>724</ele>
        <time>2020-03-13T08:43:34+01:00</time>
      </trkpt>
      <trkpt lat="43.98303" lon="5.34284">
        <ele>722</ele>
        <time>2020-03-13T08:43:39+01:00</time>
      </trkpt>
      <trkpt lat="43.98286" lon="5.34296">
        <ele>719</ele>
        <time>2020-03-13T08:43:44+01:00</time>
      </trkpt>
      <trkpt lat="43.98264" lon="5.343">
        <ele>718</ele>
        <time>2017-09-01T12:19:30+02:00</time>
      </trkpt>
      <trkpt lat="43.98245" lon="5.34316">
        <ele>714</ele>
        <time>2017-09-01T12:19:48+02:00</time>
      </trkpt>
      <trkpt lat="43.98225" lon="5.34305">
        <ele>713</ele>
        <time>2017-09-01T12:20:40+02:00</time>
      </trkpt>
      <trkpt lat="43.98207" lon="5.34308">
        <ele>710</ele>
        <time>2017-09-01T12:20:57+02:00</time>
      </trkpt>
      <trkpt lat="43.98192" lon="5.3433">
        <ele>706</ele>
        <time>2017-09-01T12:21:21+02:00</time>
      </trkpt>
      <trkpt lat="43.98176" lon="5.34343">
        <ele>702</ele>
        <time>2017-09-01T12:21:51+02:00</time>
      </trkpt>
      <trkpt lat="43.98158" lon="5.3436">
        <ele>696</ele>
        <time>2017-09-01T12:22:25+02:00</time>
      </trkpt>
      <trkpt lat="43.9814" lon="5.34367">
        <ele>692</ele>
        <time>2020-03-13T08:44:24+01:00</time>
      </trkpt>
      <trkpt lat="43.9812" lon="5.34372">
        <ele>688</ele>
        <time>2017-09-01T12:23:35+02:00</time>
      </trkpt>
      <trkpt lat="43.98101" lon="5.34389">
        <ele>683</ele>
        <time>2017-09-01T12:24:33+02:00</time>
      </trkpt>
      <trkpt lat="43.9808" lon="5.34384">
        <ele>681</ele>
        <time>2017-09-01T12:25:24+02:00</time>
      </trkpt>
      <trkpt lat="43.9806" lon="5.34394">
        <ele>676</ele>
        <time>2017-09-01T12:25:40+02:00</time>
      </trkpt>
      <trkpt lat="43.98039" lon="5.34405">
        <ele>671</ele>
        <time>2017-09-01T12:26:11+02:00</time>
      </trkpt>
      <trkpt lat="43.98022" lon="5.34423">
        <ele>664</ele>
        <time>2017-09-01T12:26:33+02:00</time>
      </trkpt>
      <trkpt lat="43.98006" lon="5.34423">
        <ele>662</ele>
        <time>2017-09-01T12:27:07+02:00</time>
      </trkpt>
      <trkpt lat="43.97985" lon="5.34422">
        <ele>661</ele>
        <time>2017-09-01T12:29:00+02:00</time>
      </trkpt>
      <trkpt lat="43.97971" lon="5.3442">
        <ele>661</ele>
        <time>2020-03-13T08:45:09+01:00</time>
      </trkpt>
      <trkpt lat="43.9795" lon="5.34428">
        <ele>658</ele>
        <time>2017-09-01T12:30:31+02:00</time>
      </trkpt>
      <trkpt lat="43.97929" lon="5.34436">
        <ele>655</ele>
        <time>2017-09-01T12:34:05+02:00</time>
      </trkpt>
      <trkpt lat="43.97911" lon="5.34429">
        <ele>656</ele>
        <time>2017-09-01T12:34:21+02:00</time>
      </trkpt>
      <trkpt lat="43.9789" lon="5.34441">
        <ele>653</ele>
        <time>2017-09-01T12:34:41+02:00</time>
      </trkpt>
      <trkpt lat="43.97871" lon="5.34454">
        <ele>649</ele>
        <time>2017-09-01T12:35:45+02:00</time>
      </trkpt>
      <trkpt lat="43.9787" lon="5.34457">
        <ele>649</ele>
        <time>2017-09-01T13:06:37+02:00</time>
      </trkpt>
      <trkpt lat="43.97848" lon="5.3445">
        <ele>650</ele>
        <time>2017-09-01T13:07:50+02:00</time>
      </trkpt>
      <trkpt lat="43.97834" lon="5.34438">
        <ele>651</ele>
        <time>2017-09-01T13:08:26+02:00</time>
      </trkpt>
      <trkpt lat="43.97817" lon="5.34432">
        <ele>648</ele>
        <time>2017-09-01T13:09:03+02:00</time>
      </trkpt>
      <trkpt lat="43.97806" lon="5.34418">
        <ele>647</ele>
        <time>2017-09-01T13:10:13+02:00</time>
      </trkpt>
      <trkpt lat="43.97785" lon="5.34415">
        <ele>643</ele>
        <time>2017-09-01T13:10:13+02:00</time>
      </trkpt>
      <trkpt lat="43.9777" lon="5.34407">
        <ele>639</ele>
        <time>2017-09-01T13:10:56+02:00</time>
      </trkpt>
      <trkpt lat="43.97756" lon="5.34387">
        <ele>636</ele>
        <time>2017-09-01T13:11:13+02:00</time>
      </trkpt>
      <trkpt lat="43.97737" lon="5.34379">
        <ele>631</ele>
        <time>2017-09-01T13:11:33+02:00</time>
      </trkpt>
      <trkpt lat="43.97718" lon="5.34365">
        <ele>626</ele>
        <time>2017-09-01T13:12:02+02:00</time>
      </trkpt>
      <trkpt lat="43.97703" lon="5.34355">
        <ele>623</ele>
        <time>2017-09-01T13:13:19+02:00</time>
      </trkpt>
      <trkpt lat="43.97683" lon="5.34343">
        <ele>620</ele>
        <time>2017-09-01T13:13:48+02:00</time>
      </trkpt>
      <trkpt lat="43.97664" lon="5.34334">
        <ele>617</ele>
        <time>2017-09-01T13:14:32+02:00</time>
      </trkpt>
      <trkpt lat="43.97647" lon="5.3432">
        <ele>614</ele>
        <time>2017-09-01T13:14:59+02:00</time>
      </trkpt>
      <trkpt lat="43.97631" lon="5.34306">
        <ele>612</ele>
        <time>2017-09-01T13:15:16+02:00</time>
      </trkpt>
      <trkpt lat="43.97616" lon="5.34303">
        <ele>609</ele>
        <time>2017-09-01T13:15:32+02:00</time>
      </trkpt>
      <trkpt lat="43.97599" lon="5.34303">
        <ele>606</ele>
        <time>2017-09-01T13:16:02+02:00</time>
      </trkpt>
      <trkpt lat="43.97577" lon="5.34299">
        <ele>601</ele>
        <time>2017-09-01T13:16:48+02:00</time>
      </trkpt>
      <trkpt lat="43.97558" lon="5.34287">
        <ele>598</ele>
        <time>2017-09-01T13:17:16+02:00</time>
      </trkpt>
      <trkpt lat="43.97541" lon="5.34273">
        <ele>596</ele>
        <time>2017-09-01T13:17:43+02:00</time>
      </trkpt>
      <trkpt lat="43.97537" lon="5.34243">
        <ele>601</ele>
        <time>2017-09-01T13:19:19+02:00</time>
      </trkpt>
      <trkpt lat="43.97516" lon="5.34245">
        <ele>596</ele>
        <time>2017-09-01T13:19:36+02:00</time>
      </trkpt>
      <trkpt lat="43.97497" lon="5.34248">
        <ele>592</ele>
        <time>2017-09-01T13:20:15+02:00</time>
      </trkpt>
      <trkpt lat="43.97477" lon="5.34244">
        <ele>588</ele>
        <time>2017-09-01T13:20:31+02:00</time>
      </trkpt>
      <trkpt lat="43.97462" lon="5.34242">
        <ele>585</ele>
        <time>2017-09-01T13:20:31+02:00</time>
      </trkpt>
      <trkpt lat="43.97444" lon="5.34234">
        <ele>581</ele>
        <time>2017-09-01T13:21:03+02:00</time>
      </trkpt>
      <trkpt lat="43.97425" lon="5.34217">
        <ele>579</ele>
        <time>2017-09-01T13:21:39+02:00</time>
      </trkpt>
      <trkpt lat="43.97406" lon="5.34214">
        <ele>575</ele>
        <time>2017-09-01T13:22:00+02:00</time>
      </trkpt>
      <trkpt lat="43.97386" lon="5.34201">
        <ele>571</ele>
        <time>2017-09-01T13:22:49+02:00</time>
      </trkpt>
      <trkpt lat="43.97372" lon="5.34219">
        <ele>563</ele>
        <time>2017-09-01T13:23:59+02:00</time>
      </trkpt>
      <trkpt lat="43.97356" lon="5.34233">
        <ele>554</ele>
        <time>2017-09-01T13:27:03+02:00</time>
      </trkpt>
      <trkpt lat="43.97337" lon="5.34229">
        <ele>548</ele>
        <time>2017-09-01T13:27:20+02:00</time>
      </trkpt>
      <trkpt lat="43.97322" lon="5.34226">
        <ele>544</ele>
        <time>2017-09-01T13:27:20+02:00</time>
      </trkpt>
      <trkpt lat="43.97307" lon="5.34224">
        <ele>539</ele>
        <time>2017-09-01T13:39:58+02:00</time>
      </trkpt>
      <trkpt lat="43.97284" lon="5.34186">
        <ele>542</ele>
        <time>2017-09-01T13:50:04+02:00</time>
      </trkpt>
      <trkpt lat="43.97276" lon="5.34209">
        <ele>532</ele>
        <time>2017-09-01T13:50:57+02:00</time>
      </trkpt>
      <trkpt lat="43.97269" lon="5.34222">
        <ele>525</ele>
        <time>2017-09-01T13:50:57+02:00</time>
      </trkpt>
      <trkpt lat="43.97254" lon="5.34244">
        <ele>511</ele>
        <time>2017-09-01T13:51:26+02:00</time>
      </trkpt>
      <trkpt lat="43.97237" lon="5.34262">
        <ele>500</ele>
        <time>2017-09-01T13:51:45+02:00</time>
      </trkpt>
      <trkpt lat="43.9723" lon="5.34292">
        <ele>493</ele>
        <time>2017-09-01T13:52:19+02:00</time>
      </trkpt>
      <trkpt lat="43.97227" lon="5.34319">
        <ele>488</ele>
        <time>2017-09-01T13:52:37+02:00</time>
      </trkpt>
      <trkpt lat="43.97228" lon="5.34348">
        <ele>485</ele>
        <time>2017-09-01T13:52:59+02:00</time>
      </trkpt>
      <trkpt lat="43.97225" lon="5.34374">
        <ele>482</ele>
        <time>2017-09-01T13:53:26+02:00</time>
      </trkpt>
      <trkpt lat="43.97229" lon="5.34398">
        <ele>480</ele>
        <time>2017-09-01T13:54:05+02:00</time>
      </trkpt>
      <trkpt lat="43.97238" lon="5.34422">
        <ele>479</ele>
        <time>2017-09-01T13:54:20+02:00</time>
      </trkpt>
      <trkpt lat="43.97251" lon="5.34435">
        <ele>479</ele>
        <time>2017-09-01T13:54:37+02:00</time>
      </trkpt>
      <trkpt lat="43.97272" lon="5.34443">
        <ele>484</ele>
        <time>2017-09-01T13:54:55+02:00</time>
      </trkpt>
      <trkpt lat="43.97288" lon="5.34457">
        <ele>486</ele>
        <time>2017-09-01T13:57:14+02:00</time>
      </trkpt>
      <trkpt lat="43.97309" lon="5.34462">
        <ele>489</ele>
        <time>2017-09-01T13:57:14+02:00</time>
      </trkpt>
      <trkpt lat="43.97315" lon="5.34483">
        <ele>487</ele>
        <time>2017-09-01T13:59:02+02:00</time>
      </trkpt>
      <trkpt lat="43.97295" lon="5.34495">
        <ele>484</ele>
        <time>2017-09-01T13:59:18+02:00</time>
      </trkpt>
      <trkpt lat="43.97273" lon="5.34497">
        <ele>484</ele>
        <time>2017-09-01T13:59:57+02:00</time>
      </trkpt>
      <trkpt lat="43.97253" lon="5.34497">
        <ele>483</ele>
        <time>2017-09-01T14:00:49+02:00</time>
      </trkpt>
      <trkpt lat="43.97243" lon="5.34492">
        <ele>484</ele>
        <time>2017-09-01T14:02:20+02:00</time>
      </trkpt>
      <trkpt lat="43.97228" lon="5.34495">
        <ele>488</ele>
        <time>2017-09-01T14:02:37+02:00</time>
      </trkpt>
      <trkpt lat="43.97212" lon="5.34515">
        <ele>497</ele>
        <time>2017-09-01T14:03:41+02:00</time>
      </trkpt>
      <trkpt lat="43.97199" lon="5.34504">
        <ele>497</ele>
        <time>2017-09-01T14:03:59+02:00</time>
      </trkpt>
      <trkpt lat="43.9718" lon="5.34501">
        <ele>500</ele>
        <time>2017-09-01T14:04:21+02:00</time>
      </trkpt>
      <trkpt lat="43.97159" lon="5.34497">
        <ele>504</ele>
        <time>2017-09-01T14:04:54+02:00</time>
      </trkpt>
      <trkpt lat="43.97147" lon="5.34474">
        <ele>501</ele>
        <time>2017-09-01T14:06:23+02:00</time>
      </trkpt>
      <trkpt lat="43.97133" lon="5.34458">
        <ele>502</ele>
        <time>2017-09-01T14:06:43+02:00</time>
      </trkpt>
      <trkpt lat="43.97117" lon="5.34444">
        <ele>504</ele>
        <time>2017-09-01T14:07:05+02:00</time>
      </trkpt>
      <trkpt lat="43.97103" lon="5.34432">
        <ele>507</ele>
        <time>2017-09-01T14:07:31+02:00</time>
      </trkpt>
      <trkpt lat="43.97084" lon="5.34435">
        <ele>514</ele>
        <time>2017-09-01T14:07:49+02:00</time>
      </trkpt>
      <trkpt lat="43.97079" lon="5.34455">
        <ele>517</ele>
        <time>2017-09-01T14:08:04+02:00</time>
      </trkpt>
      <trkpt lat="43.97077" lon="5.34479">
        <ele>521</ele>
        <time>2017-09-01T14:08:20+02:00</time>
      </trkpt>
      <trkpt lat="43.97077" lon="5.34506">
        <ele>524</ele>
        <time>2017-09-01T14:10:27+02:00</time>
      </trkpt>
      <trkpt lat="43.97084" lon="5.34528">
        <ele>527</ele>
        <time>2017-09-01T14:10:44+02:00</time>
      </trkpt>
      <trkpt lat="43.97073" lon="5.34555">
        <ele>531</ele>
        <time>2017-09-01T14:12:32+02:00</time>
      </trkpt>
      <trkpt lat="43.97069" lon="5.34586">
        <ele>534</ele>
        <time>2017-09-01T14:13:24+02:00</time>
      </trkpt>
      <trkpt lat="43.97083" lon="5.34609">
        <ele>538</ele>
        <time>2017-09-01T14:13:45+02:00</time>
      </trkpt>
      <trkpt lat="43.97096" lon="5.34634">
        <ele>539</ele>
        <time>2017-09-01T14:14:03+02:00</time>
      </trkpt>
      <trkpt lat="43.97102" lon="5.34644">
        <ele>539</ele>
        <time>2017-09-01T14:14:25+02:00</time>
      </trkpt>
      <trkpt lat="43.97116" lon="5.34668">
        <ele>540</ele>
        <time>2017-09-01T14:14:48+02:00</time>
      </trkpt>
      <trkpt lat="43.97127" lon="5.34685">
        <ele>541</ele>
        <time>2017-09-01T14:15:06+02:00</time>
      </trkpt>
      <trkpt lat="43.97133" lon="5.34702">
        <ele>542</ele>
        <time>2017-09-01T14:15:23+02:00</time>
      </trkpt>
      <trkpt lat="43.9714" lon="5.34729">
        <ele>545</ele>
        <time>2017-09-01T14:15:39+02:00</time>
      </trkpt>
      <trkpt lat="43.97149" lon="5.34751">
        <ele>547</ele>
        <time>2017-09-01T14:16:00+02:00</time>
      </trkpt>
      <trkpt lat="43.9716" lon="5.34776">
        <ele>549</ele>
        <time>2017-09-01T14:16:14+02:00</time>
      </trkpt>
      <trkpt lat="43.97173" lon="5.34799">
        <ele>550</ele>
        <time>2017-09-01T14:16:49+02:00</time>
      </trkpt>
      <trkpt lat="43.97183" lon="5.34826">
        <ele>551</ele>
        <time>2017-09-01T14:17:04+02:00</time>
      </trkpt>
      <trkpt lat="43.97194" lon="5.34847">
        <ele>551</ele>
        <time>2017-09-01T14:17:22+02:00</time>
      </trkpt>
      <trkpt lat="43.97206" lon="5.3487">
        <ele>553</ele>
        <time>2017-09-01T14:17:34+02:00</time>
      </trkpt>
      <trkpt lat="43.97215" lon="5.34897">
        <ele>555</ele>
        <time>2017-09-01T14:18:08+02:00</time>
      </trkpt>
      <trkpt lat="43.97221" lon="5.34923">
        <ele>557</ele>
        <time>2017-09-01T14:18:31+02:00</time>
      </trkpt>
      <trkpt lat="43.97234" lon="5.34947">
        <ele>560</ele>
        <time>2017-09-01T14:18:46+02:00</time>
      </trkpt>
      <trkpt lat="43.97229" lon="5.34976">
        <ele>562</ele>
        <time>2017-09-01T14:19:08+02:00</time>
      </trkpt>
      <trkpt lat="43.97221" lon="5.35003">
        <ele>563</ele>
        <time>2017-09-01T14:19:45+02:00</time>
      </trkpt>
      <trkpt lat="43.97225" lon="5.35031">
        <ele>564</ele>
        <time>2017-09-01T14:23:12+02:00</time>
      </trkpt>
      <trkpt lat="43.97225" lon="5.35059">
        <ele>566</ele>
        <time>2017-09-01T14:23:28+02:00</time>
      </trkpt>
      <trkpt lat="43.97211" lon="5.35082">
        <ele>565</ele>
        <time>2017-09-01T14:24:09+02:00</time>
      </trkpt>
      <trkpt lat="43.97194" lon="5.3508">
        <ele>562</ele>
        <time>2017-09-01T14:24:24+02:00</time>
      </trkpt>
      <trkpt lat="43.9718" lon="5.35103">
        <ele>561</ele>
        <time>2017-09-01T14:25:04+02:00</time>
      </trkpt>
      <trkpt lat="43.9717" lon="5.35129">
        <ele>560</ele>
        <time>2017-09-01T14:25:39+02:00</time>
      </trkpt>
      <trkpt lat="43.97151" lon="5.35129">
        <ele>556</ele>
        <time>2017-09-01T14:26:14+02:00</time>
      </trkpt>
      <trkpt lat="43.97141" lon="5.3511">
        <ele>554</ele>
        <time>2017-09-01T14:26:15+02:00</time>
      </trkpt>
      <trkpt lat="43.97128" lon="5.35128">
        <ele>551</ele>
        <time>2017-09-01T14:26:49+02:00</time>
      </trkpt>
      <trkpt lat="43.97129" lon="5.35153">
        <ele>552</ele>
        <time>2017-09-01T14:26:49+02:00</time>
      </trkpt>
      <trkpt lat="43.97123" lon="5.35179">
        <ele>551</ele>
        <time>2017-09-01T14:27:07+02:00</time>
      </trkpt>
      <trkpt lat="43.97115" lon="5.35197">
        <ele>550</ele>
        <time>2017-09-01T14:27:24+02:00</time>
      </trkpt>
      <trkpt lat="43.97102" lon="5.35218">
        <ele>547</ele>
        <time>2017-09-01T14:27:38+02:00</time>
      </trkpt>
      <trkpt lat="43.97095" lon="5.3524">
        <ele>547</ele>
        <time>2017-09-01T14:27:54+02:00</time>
      </trkpt>
      <trkpt lat="43.97098" lon="5.35269">
        <ele>548</ele>
        <time>2017-09-01T14:28:29+02:00</time>
      </trkpt>
      <trkpt lat="43.9709" lon="5.35295">
        <ele>548</ele>
        <time>2017-09-01T14:31:31+02:00</time>
      </trkpt>
      <trkpt lat="43.97103" lon="5.35319">
        <ele>551</ele>
        <time>2017-09-01T15:12:41+02:00</time>
      </trkpt>
      <trkpt lat="43.97105" lon="5.35338">
        <ele>552</ele>
        <time>2020-03-13T08:54:24+01:00</time>
      </trkpt>
      <trkpt lat="43.97101" lon="5.35354">
        <ele>553</ele>
        <time>2020-03-13T08:54:29+01:00</time>
      </trkpt>
      <trkpt lat="43.97094" lon="5.3537">
        <ele>554</ele>
        <time>2017-09-01T15:22:16+02:00</time>
      </trkpt>
      <trkpt lat="43.97095" lon="5.35388">
        <ele>555</ele>
        <time>2020-03-13T08:54:39+01:00</time>
      </trkpt>
      <trkpt lat="43.97109" lon="5.35415">
        <ele>557</ele>
        <time>2017-09-01T15:22:16+02:00</time>
      </trkpt>
      <trkpt lat="43.97092" lon="5.35418">
        <ele>558</ele>
        <time>2020-03-13T08:54:49+01:00</time>
      </trkpt>
      <trkpt lat="43.97076" lon="5.35419">
        <ele>560</ele>
        <time>2017-09-01T15:22:16+02:00</time>
      </trkpt>
      <trkpt lat="43.9705" lon="5.35406">
        <ele>564</ele>
        <time>2017-09-01T15:22:16+02:00</time>
      </trkpt>
      <trkpt lat="43.97023" lon="5.35405">
        <ele>569</ele>
        <time>2020-03-13T08:55:04+01:00</time>
      </trkpt>
      <trkpt lat="43.96995" lon="5.35407">
        <ele>575</ele>
        <time>2017-09-01T15:22:16+02:00</time>
      </trkpt>
      <trkpt lat="43.9698" lon="5.35412">
        <ele>579</ele>
        <time>2017-09-01T15:22:16+02:00</time>
      </trkpt>
      <trkpt lat="43.96948" lon="5.35403">
        <ele>584</ele>
        <time>2017-09-01T15:22:16+02:00</time>
      </trkpt>
      <trkpt lat="43.96936" lon="5.35404">
        <ele>587</ele>
        <time>2020-03-13T08:55:24+01:00</time>
      </trkpt>
      <trkpt lat="43.96927" lon="5.35417">
        <ele>591</ele>
        <time>2017-09-01T15:22:16+02:00</time>
      </trkpt>
      <trkpt lat="43.96914" lon="5.35415">
        <ele>594</ele>
        <time>2017-09-01T15:22:16+02:00</time>
      </trkpt>
      <trkpt lat="43.96891" lon="5.3541">
        <ele>603</ele>
        <time>2017-09-01T15:22:16+02:00</time>
      </trkpt>
      <trkpt lat="43.96879" lon="5.35391">
        <ele>605</ele>
        <time>2017-09-01T15:22:16+02:00</time>
      </trkpt>
      <trkpt lat="43.96864" lon="5.35377">
        <ele>608</ele>
        <time>2020-03-13T08:55:49+01:00</time>
      </trkpt>
      <trkpt lat="43.96862" lon="5.3539">
        <ele>611</ele>
        <time>2017-09-01T15:22:16+02:00</time>
      </trkpt>
      <trkpt lat="43.96859" lon="5.35416">
        <ele>617</ele>
        <time>2017-09-01T15:22:16+02:00</time>
      </trkpt>
      <trkpt lat="43.96859" lon="5.35442">
        <ele>622</ele>
        <time>2017-09-01T15:33:44+02:00</time>
      </trkpt>
      <trkpt lat="43.96859" lon="5.35463">
        <ele>625</ele>
        <time>2017-09-01T15:33:44+02:00</time>
      </trkpt>
      <trkpt lat="43.96866" lon="5.35492">
        <ele>627</ele>
        <time>2020-03-13T08:56:14+01:00</time>
      </trkpt>
      <trkpt lat="43.96864" lon="5.35517">
        <ele>633</ele>
        <time>2020-03-13T08:56:19+01:00</time>
      </trkpt>
      <trkpt lat="43.9687" lon="5.35537">
        <ele>635</ele>
        <time>2017-09-01T15:33:44+02:00</time>
      </trkpt>
      <trkpt lat="43.96871" lon="5.35574">
        <ele>642</ele>
        <time>2017-09-01T15:33:44+02:00</time>
      </trkpt>
      <trkpt lat="43.96883" lon="5.35639">
        <ele>652</ele>
        <time>2017-09-01T15:33:44+02:00</time>
      </trkpt>
      <trkpt lat="43.96894" lon="5.35674">
        <ele>656</ele>
        <time>2020-03-13T08:56:39+01:00</time>
      </trkpt>
      <trkpt lat="43.96907" lon="5.35707">
        <ele>659</ele>
        <time>2017-09-01T15:33:44+02:00</time>
      </trkpt>
      <trkpt lat="43.96913" lon="5.35728">
        <ele>662</ele>
        <time>2020-03-13T08:56:49+01:00</time>
      </trkpt>
      <trkpt lat="43.96918" lon="5.35757">
        <ele>666</ele>
        <time>2020-03-13T08:56:54+01:00</time>
      </trkpt>
      <trkpt lat="43.96926" lon="5.35779">
        <ele>667</ele>
        <time>2017-09-01T15:49:47+02:00</time>
      </trkpt>
      <trkpt lat="43.96917" lon="5.35799">
        <ele>673</ele>
        <time>2017-09-01T15:51:12+02:00</time>
      </trkpt>
      <trkpt lat="43.9691" lon="5.35818">
        <ele>677</ele>
        <time>2017-09-01T15:51:13+02:00</time>
      </trkpt>
      <trkpt lat="43.96907" lon="5.35827">
        <ele>679</ele>
        <time>2017-09-01T15:51:57+02:00</time>
      </trkpt>
      <trkpt lat="43.96898" lon="5.35848">
        <ele>684</ele>
        <time>2017-09-01T15:51:57+02:00</time>
      </trkpt>
      <trkpt lat="43.96886" lon="5.35862">
        <ele>687</ele>
        <time>2017-09-01T15:53:42+02:00</time>
      </trkpt>
      <trkpt lat="43.96874" lon="5.35881">
        <ele>690</ele>
        <time>2017-09-01T15:53:42+02:00</time>
      </trkpt>
      <trkpt lat="43.96861" lon="5.35903">
        <ele>694</ele>
        <time>2017-09-01T15:54:14+02:00</time>
      </trkpt>
      <trkpt lat="43.96847" lon="5.35902">
        <ele>695</ele>
        <time>2017-09-01T15:56:00+02:00</time>
      </trkpt>
      <trkpt lat="43.96841" lon="5.35877">
        <ele>693</ele>
        <time>2017-09-01T15:56:19+02:00</time>
      </trkpt>
      <trkpt lat="43.96834" lon="5.35855">
        <ele>692</ele>
        <time>2017-09-01T15:56:50+02:00</time>
      </trkpt>
      <trkpt lat="43.96819" lon="5.35837">
        <ele>690</ele>
        <time>2017-09-01T15:57:10+02:00</time>
      </trkpt>
      <trkpt lat="43.96815" lon="5.35806">
        <ele>686</ele>
        <time>2017-09-01T15:57:29+02:00</time>
      </trkpt>
      <trkpt lat="43.96806" lon="5.35785">
        <ele>684</ele>
        <time>2017-09-01T15:57:59+02:00</time>
      </trkpt>
      <trkpt lat="43.96797" lon="5.35766">
        <ele>682</ele>
        <time>2017-09-01T15:58:16+02:00</time>
      </trkpt>
      <trkpt lat="43.96788" lon="5.35744">
        <ele>681</ele>
        <time>2017-09-01T15:58:31+02:00</time>
      </trkpt>
      <trkpt lat="43.96781" lon="5.3573">
        <ele>680</ele>
        <time>2017-09-01T15:58:47+02:00</time>
      </trkpt>
      <trkpt lat="43.96773" lon="5.35708">
        <ele>678</ele>
        <time>2017-09-01T15:59:04+02:00</time>
      </trkpt>
      <trkpt lat="43.96766" lon="5.35685">
        <ele>676</ele>
        <time>2017-09-01T15:59:28+02:00</time>
      </trkpt>
      <trkpt lat="43.96755" lon="5.35663">
        <ele>675</ele>
        <time>2017-09-01T15:59:48+02:00</time>
      </trkpt>
      <trkpt lat="43.9675" lon="5.35635">
        <ele>674</ele>
        <time>2017-09-01T16:00:04+02:00</time>
      </trkpt>
      <trkpt lat="43.96749" lon="5.35611">
        <ele>673</ele>
        <time>2017-09-01T16:00:19+02:00</time>
      </trkpt>
      <trkpt lat="43.96741" lon="5.35584">
        <ele>671</ele>
        <time>2017-09-01T16:00:50+02:00</time>
      </trkpt>
      <trkpt lat="43.96746" lon="5.35555">
        <ele>669</ele>
        <time>2017-09-01T16:01:09+02:00</time>
      </trkpt>
      <trkpt lat="43.96752" lon="5.35531">
        <ele>667</ele>
        <time>2017-09-01T16:02:04+02:00</time>
      </trkpt>
      <trkpt lat="43.96738" lon="5.3551">
        <ele>667</ele>
        <time>2017-09-01T16:03:20+02:00</time>
      </trkpt>
      <trkpt lat="43.96725" lon="5.35487">
        <ele>666</ele>
        <time>2017-09-01T16:03:36+02:00</time>
      </trkpt>
      <trkpt lat="43.96717" lon="5.3546">
        <ele>665</ele>
        <time>2017-09-01T16:04:13+02:00</time>
      </trkpt>
      <trkpt lat="43.96708" lon="5.35441">
        <ele>664</ele>
        <time>2017-09-01T16:04:28+02:00</time>
      </trkpt>
      <trkpt lat="43.9671" lon="5.35411">
        <ele>662</ele>
        <time>2017-09-01T16:04:43+02:00</time>
      </trkpt>
      <trkpt lat="43.9671" lon="5.35384">
        <ele>658</ele>
        <time>2017-09-01T16:05:36+02:00</time>
      </trkpt>
      <trkpt lat="43.967" lon="5.35366">
        <ele>658</ele>
        <time>2017-09-01T16:05:57+02:00</time>
      </trkpt>
      <trkpt lat="43.96692" lon="5.35347">
        <ele>658</ele>
        <time>2017-09-01T16:06:11+02:00</time>
      </trkpt>
      <trkpt lat="43.96688" lon="5.35321">
        <ele>657</ele>
        <time>2017-09-01T16:07:04+02:00</time>
      </trkpt>
      <trkpt lat="43.96676" lon="5.35298">
        <ele>659</ele>
        <time>2017-09-01T16:07:19+02:00</time>
      </trkpt>
      <trkpt lat="43.96667" lon="5.35276">
        <ele>660</ele>
        <time>2017-09-01T16:07:42+02:00</time>
      </trkpt>
      <trkpt lat="43.96664" lon="5.35249">
        <ele>659</ele>
        <time>2017-09-01T16:07:59+02:00</time>
      </trkpt>
      <trkpt lat="43.9666" lon="5.35218">
        <ele>656</ele>
        <time>2017-09-01T16:08:15+02:00</time>
      </trkpt>
      <trkpt lat="43.96652" lon="5.35195">
        <ele>654</ele>
        <time>2017-09-01T16:12:44+02:00</time>
      </trkpt>
      <trkpt lat="43.96642" lon="5.3517">
        <ele>653</ele>
        <time>2017-09-01T16:13:04+02:00</time>
      </trkpt>
      <trkpt lat="43.96629" lon="5.35147">
        <ele>652</ele>
        <time>2017-09-01T16:13:37+02:00</time>
      </trkpt>
      <trkpt lat="43.96621" lon="5.35123">
        <ele>651</ele>
        <time>2017-09-01T16:13:52+02:00</time>
      </trkpt>
      <trkpt lat="43.96606" lon="5.35105">
        <ele>653</ele>
        <time>2017-09-01T16:14:10+02:00</time>
      </trkpt>
      <trkpt lat="43.966" lon="5.35086">
        <ele>653</ele>
        <time>2017-09-01T16:14:28+02:00</time>
      </trkpt>
      <trkpt lat="43.96587" lon="5.35068">
        <ele>655</ele>
        <time>2017-09-01T16:14:56+02:00</time>
      </trkpt>
      <trkpt lat="43.96587" lon="5.35041">
        <ele>652</ele>
        <time>2017-09-01T16:15:19+02:00</time>
      </trkpt>
      <trkpt lat="43.96578" lon="5.35019">
        <ele>650</ele>
        <time>2017-09-01T16:15:41+02:00</time>
      </trkpt>
      <trkpt lat="43.96568" lon="5.34995">
        <ele>648</ele>
        <time>2017-09-01T16:16:07+02:00</time>
      </trkpt>
      <trkpt lat="43.96562" lon="5.34972">
        <ele>646</ele>
        <time>2017-09-01T16:16:28+02:00</time>
      </trkpt>
      <trkpt lat="43.96561" lon="5.34943">
        <ele>645</ele>
        <time>2017-09-01T16:16:43+02:00</time>
      </trkpt>
      <trkpt lat="43.96557" lon="5.34914">
        <ele>643</ele>
        <time>2017-09-01T16:17:15+02:00</time>
      </trkpt>
      <trkpt lat="43.96552" lon="5.34889">
        <ele>642</ele>
        <time>2017-09-01T16:17:33+02:00</time>
      </trkpt>
      <trkpt lat="43.96545" lon="5.3486">
        <ele>642</ele>
        <time>2017-09-01T16:18:05+02:00</time>
      </trkpt>
      <trkpt lat="43.96538" lon="5.34837">
        <ele>642</ele>
        <time>2017-09-01T16:18:19+02:00</time>
      </trkpt>
      <trkpt lat="43.9653" lon="5.34812">
        <ele>643</ele>
        <time>2017-09-01T16:18:41+02:00</time>
      </trkpt>
      <trkpt lat="43.96527" lon="5.34789">
        <ele>642</ele>
        <time>2017-09-01T16:19:00+02:00</time>
      </trkpt>
      <trkpt lat="43.96523" lon="5.34761">
        <ele>642</ele>
        <time>2017-09-01T16:20:27+02:00</time>
      </trkpt>
      <trkpt lat="43.96526" lon="5.3474">
        <ele>640</ele>
        <time>2017-09-01T16:20:48+02:00</time>
      </trkpt>
      <trkpt lat="43.9654" lon="5.3476">
        <ele>638</ele>
        <time>2017-09-01T16:21:19+02:00</time>
      </trkpt>
      <trkpt lat="43.96556" lon="5.34774">
        <ele>634</ele>
        <time>2017-09-01T16:21:19+02:00</time>
      </trkpt>
      <trkpt lat="43.96566" lon="5.34793">
        <ele>634</ele>
        <time>2017-09-01T16:21:35+02:00</time>
      </trkpt>
      <trkpt lat="43.96576" lon="5.34817">
        <ele>634</ele>
        <time>2017-09-01T16:22:08+02:00</time>
      </trkpt>
      <trkpt lat="43.96587" lon="5.34842">
        <ele>633</ele>
        <time>2017-09-01T16:22:24+02:00</time>
      </trkpt>
      <trkpt lat="43.96598" lon="5.34867">
        <ele>630</ele>
        <time>2017-09-01T16:22:40+02:00</time>
      </trkpt>
      <trkpt lat="43.9661" lon="5.34892">
        <ele>628</ele>
        <time>2020-03-13T09:02:19+01:00</time>
      </trkpt>
      <trkpt lat="43.96618" lon="5.34914">
        <ele>627</ele>
        <time>2017-09-01T16:23:12+02:00</time>
      </trkpt>
      <trkpt lat="43.96628" lon="5.34936">
        <ele>626</ele>
        <time>2017-09-01T16:23:28+02:00</time>
      </trkpt>
      <trkpt lat="43.9664" lon="5.34962">
        <ele>624</ele>
        <time>2017-09-01T16:23:43+02:00</time>
      </trkpt>
      <trkpt lat="43.96642" lon="5.34971">
        <ele>624</ele>
        <time>2017-09-01T16:23:43+02:00</time>
      </trkpt>
      <trkpt lat="43.96653" lon="5.34996">
        <ele>623</ele>
        <time>2017-09-01T16:25:04+02:00</time>
      </trkpt>
      <trkpt lat="43.9666" lon="5.35005">
        <ele>621</ele>
        <time>2017-09-01T16:25:04+02:00</time>
      </trkpt>
      <trkpt lat="43.96677" lon="5.35059">
        <ele>624</ele>
        <time>2017-09-01T16:25:04+02:00</time>
      </trkpt>
      <trkpt lat="43.96692" lon="5.35083">
        <ele>623</ele>
        <time>2017-09-01T16:25:24+02:00</time>
      </trkpt>
      <trkpt lat="43.96709" lon="5.35098">
        <ele>620</ele>
        <time>2020-03-13T09:03:04+01:00</time>
      </trkpt>
      <trkpt lat="43.96722" lon="5.35118">
        <ele>619</ele>
        <time>2017-09-01T16:26:04+02:00</time>
      </trkpt>
      <trkpt lat="43.96737" lon="5.35141">
        <ele>618</ele>
        <time>2017-09-01T16:26:24+02:00</time>
      </trkpt>
      <trkpt lat="43.96748" lon="5.35148">
        <ele>615</ele>
        <time>2017-09-01T16:26:24+02:00</time>
      </trkpt>
      <trkpt lat="43.96758" lon="5.35168">
        <ele>614</ele>
        <time>2017-09-01T16:26:48+02:00</time>
      </trkpt>
      <trkpt lat="43.9677" lon="5.35188">
        <ele>613</ele>
        <time>2017-09-01T16:27:02+02:00</time>
      </trkpt>
      <trkpt lat="43.96785" lon="5.35208">
        <ele>611</ele>
        <time>2017-09-01T16:27:19+02:00</time>
      </trkpt>
      <trkpt lat="43.96797" lon="5.35232">
        <ele>610</ele>
        <time>2017-09-01T16:27:36+02:00</time>
      </trkpt>
      <trkpt lat="43.96807" lon="5.35255">
        <ele>609</ele>
        <time>2017-09-01T16:28:07+02:00</time>
      </trkpt>
      <trkpt lat="43.9682" lon="5.35278">
        <ele>608</ele>
        <time>2017-09-01T16:28:24+02:00</time>
      </trkpt>
      <trkpt lat="43.96834" lon="5.35301">
        <ele>606</ele>
        <time>2017-09-01T16:28:40+02:00</time>
      </trkpt>
      <trkpt lat="43.96845" lon="5.35321">
        <ele>605</ele>
        <time>2017-09-01T16:28:54+02:00</time>
      </trkpt>
      <trkpt lat="43.96854" lon="5.35343">
        <ele>606</ele>
        <time>2017-09-01T16:29:14+02:00</time>
      </trkpt>
      <trkpt lat="43.9687" lon="5.35361">
        <ele>603</ele>
        <time>2017-09-01T16:30:42+02:00</time>
      </trkpt>
      <trkpt lat="43.96878" lon="5.35388">
        <ele>604</ele>
        <time>2017-09-01T16:31:15+02:00</time>
      </trkpt>
      <trkpt lat="43.96892" lon="5.35409">
        <ele>602</ele>
        <time>2017-09-01T16:32:17+02:00</time>
      </trkpt>
      <trkpt lat="43.96914" lon="5.35413">
        <ele>594</ele>
        <time>2017-09-01T16:32:33+02:00</time>
      </trkpt>
      <trkpt lat="43.96933" lon="5.3541">
        <ele>589</ele>
        <time>2017-09-01T16:33:01+02:00</time>
      </trkpt>
      <trkpt lat="43.96947" lon="5.35402">
        <ele>584</ele>
        <time>2017-09-01T16:33:43+02:00</time>
      </trkpt>
      <trkpt lat="43.96958" lon="5.35406">
        <ele>583</ele>
        <time>2017-09-01T16:33:59+02:00</time>
      </trkpt>
      <trkpt lat="43.96979" lon="5.35412">
        <ele>579</ele>
        <time>2017-09-01T16:33:59+02:00</time>
      </trkpt>
      <trkpt lat="43.96998" lon="5.35407">
        <ele>574</ele>
        <time>2017-09-01T16:34:20+02:00</time>
      </trkpt>
      <trkpt lat="43.97011" lon="5.35413">
        <ele>572</ele>
        <time>2017-09-01T16:35:02+02:00</time>
      </trkpt>
      <trkpt lat="43.97033" lon="5.35405">
        <ele>567</ele>
        <time>2017-09-01T16:42:12+02:00</time>
      </trkpt>
      <trkpt lat="43.97054" lon="5.35409">
        <ele>563</ele>
        <time>2017-09-01T16:42:33+02:00</time>
      </trkpt>
      <trkpt lat="43.97073" lon="5.35418">
        <ele>560</ele>
        <time>2017-09-01T16:42:59+02:00</time>
      </trkpt>
      <trkpt lat="43.97088" lon="5.35418">
        <ele>558</ele>
        <time>2017-09-01T16:43:16+02:00</time>
      </trkpt>
      <trkpt lat="43.97101" lon="5.354">
        <ele>556</ele>
        <time>2017-09-01T16:44:20+02:00</time>
      </trkpt>
      <trkpt lat="43.97094" lon="5.35371">
        <ele>554</ele>
        <time>2017-09-01T16:44:20+02:00</time>
      </trkpt>
      <trkpt lat="43.97103" lon="5.35345">
        <ele>552</ele>
        <time>2017-09-01T16:44:34+02:00</time>
      </trkpt>
      <trkpt lat="43.97099" lon="5.35317">
        <ele>550</ele>
        <time>2017-09-01T16:45:12+02:00</time>
      </trkpt>
      <trkpt lat="43.97089" lon="5.35298">
        <ele>548</ele>
        <time>2017-09-01T16:45:28+02:00</time>
      </trkpt>
      <trkpt lat="43.97072" lon="5.35284">
        <ele>549</ele>
        <time>2017-09-01T16:45:44+02:00</time>
      </trkpt>
      <trkpt lat="43.97062" lon="5.35267">
        <ele>549</ele>
        <time>2017-09-01T16:46:00+02:00</time>
      </trkpt>
      <trkpt lat="43.97052" lon="5.35244">
        <ele>550</ele>
        <time>2017-09-01T16:46:00+02:00</time>
      </trkpt>
      <trkpt lat="43.9705" lon="5.35224">
        <ele>549</ele>
        <time>2017-09-01T16:46:27+02:00</time>
      </trkpt>
      <trkpt lat="43.9705" lon="5.35195">
        <ele>548</ele>
        <time>2017-09-01T16:46:43+02:00</time>
      </trkpt>
      <trkpt lat="43.97053" lon="5.35179">
        <ele>547</ele>
        <time>2017-09-01T16:46:59+02:00</time>
      </trkpt>
      <trkpt lat="43.97049" lon="5.35151">
        <ele>547</ele>
        <time>2017-09-01T16:47:14+02:00</time>
      </trkpt>
      <trkpt lat="43.97038" lon="5.35125">
        <ele>547</ele>
        <time>2017-09-01T16:47:32+02:00</time>
      </trkpt>
      <trkpt lat="43.97027" lon="5.35106">
        <ele>547</ele>
        <time>2017-09-01T16:47:48+02:00</time>
      </trkpt>
      <trkpt lat="43.97018" lon="5.35086">
        <ele>547</ele>
        <time>2017-09-01T16:48:04+02:00</time>
      </trkpt>
      <trkpt lat="43.97016" lon="5.35058">
        <ele>546</ele>
        <time>2017-09-01T16:48:24+02:00</time>
      </trkpt>
      <trkpt lat="43.97014" lon="5.3503">
        <ele>545</ele>
        <time>2017-09-01T16:48:41+02:00</time>
      </trkpt>
      <trkpt lat="43.97011" lon="5.35005">
        <ele>544</ele>
        <time>2017-09-01T16:48:54+02:00</time>
      </trkpt>
      <trkpt lat="43.97011" lon="5.34981">
        <ele>543</ele>
        <time>2017-09-01T16:49:13+02:00</time>
      </trkpt>
      <trkpt lat="43.97003" lon="5.34956">
        <ele>542</ele>
        <time>2017-09-01T16:49:29+02:00</time>
      </trkpt>
      <trkpt lat="43.96993" lon="5.34933">
        <ele>541</ele>
        <time>2017-09-01T16:49:45+02:00</time>
      </trkpt>
      <trkpt lat="43.96982" lon="5.34914">
        <ele>541</ele>
        <time>2017-09-01T16:50:00+02:00</time>
      </trkpt>
      <trkpt lat="43.96976" lon="5.34904">
        <ele>541</ele>
        <time>2017-09-01T16:50:00+02:00</time>
      </trkpt>
      <trkpt lat="43.96964" lon="5.34879">
        <ele>540</ele>
        <time>2017-09-01T16:50:26+02:00</time>
      </trkpt>
      <trkpt lat="43.96962" lon="5.34862">
        <ele>538</ele>
        <time>2017-09-01T16:50:41+02:00</time>
      </trkpt>
      <trkpt lat="43.96955" lon="5.34838">
        <ele>536</ele>
        <time>2017-09-01T16:50:54+02:00</time>
      </trkpt>
      <trkpt lat="43.96946" lon="5.34815">
        <ele>536</ele>
        <time>2017-09-01T16:51:12+02:00</time>
      </trkpt>
      <trkpt lat="43.96935" lon="5.34789">
        <ele>535</ele>
        <time>2017-09-01T16:51:32+02:00</time>
      </trkpt>
      <trkpt lat="43.96927" lon="5.34772">
        <ele>535</ele>
        <time>2017-09-01T16:51:32+02:00</time>
      </trkpt>
      <trkpt lat="43.96919" lon="5.34744">
        <ele>534</ele>
        <time>2017-09-01T16:52:03+02:00</time>
      </trkpt>
      <trkpt lat="43.96916" lon="5.34724">
        <ele>532</ele>
        <time>2017-09-01T16:52:03+02:00</time>
      </trkpt>
      <trkpt lat="43.96905" lon="5.34703">
        <ele>531</ele>
        <time>2017-09-01T16:52:18+02:00</time>
      </trkpt>
      <trkpt lat="43.96892" lon="5.3468">
        <ele>529</ele>
        <time>2017-09-01T16:52:35+02:00</time>
      </trkpt>
      <trkpt lat="43.9688" lon="5.34654">
        <ele>528</ele>
        <time>2017-09-01T16:53:07+02:00</time>
      </trkpt>
      <trkpt lat="43.96871" lon="5.34638">
        <ele>527</ele>
        <time>2017-09-01T16:53:08+02:00</time>
      </trkpt>
      <trkpt lat="43.96857" lon="5.34614">
        <ele>526</ele>
        <time>2017-09-01T16:53:23+02:00</time>
      </trkpt>
      <trkpt lat="43.96848" lon="5.346">
        <ele>526</ele>
        <time>2017-09-01T16:53:38+02:00</time>
      </trkpt>
      <trkpt lat="43.96835" lon="5.34576">
        <ele>526</ele>
        <time>2017-09-01T16:53:54+02:00</time>
      </trkpt>
      <trkpt lat="43.96826" lon="5.3455">
        <ele>524</ele>
        <time>2017-09-01T16:54:10+02:00</time>
      </trkpt>
      <trkpt lat="43.96822" lon="5.34523">
        <ele>522</ele>
        <time>2017-09-01T16:54:43+02:00</time>
      </trkpt>
      <trkpt lat="43.9682" lon="5.34499">
        <ele>519</ele>
        <time>2017-09-01T16:54:44+02:00</time>
      </trkpt>
      <trkpt lat="43.96816" lon="5.3448">
        <ele>517</ele>
        <time>2017-09-01T16:55:07+02:00</time>
      </trkpt>
      <trkpt lat="43.96808" lon="5.34459">
        <ele>516</ele>
        <time>2017-09-01T16:55:23+02:00</time>
      </trkpt>
      <trkpt lat="43.96796" lon="5.34443">
        <ele>517</ele>
        <time>2017-09-01T16:56:01+02:00</time>
      </trkpt>
      <trkpt lat="43.96789" lon="5.34438">
        <ele>519</ele>
        <time>2017-09-01T16:56:01+02:00</time>
      </trkpt>
      <trkpt lat="43.96772" lon="5.34418">
        <ele>521</ele>
        <time>2017-09-01T16:56:27+02:00</time>
      </trkpt>
      <trkpt lat="43.96755" lon="5.344">
        <ele>523</ele>
        <time>2017-09-01T16:56:44+02:00</time>
      </trkpt>
      <trkpt lat="43.96747" lon="5.34386">
        <ele>523</ele>
        <time>2017-09-01T16:56:58+02:00</time>
      </trkpt>
      <trkpt lat="43.96732" lon="5.34366">
        <ele>523</ele>
        <time>2017-09-01T16:57:15+02:00</time>
      </trkpt>
      <trkpt lat="43.96718" lon="5.34344">
        <ele>522</ele>
        <time>2017-09-01T16:57:32+02:00</time>
      </trkpt>
      <trkpt lat="43.96704" lon="5.34329">
        <ele>523</ele>
        <time>2017-09-01T16:57:48+02:00</time>
      </trkpt>
      <trkpt lat="43.96694" lon="5.34315">
        <ele>524</ele>
        <time>2017-09-01T16:58:03+02:00</time>
      </trkpt>
      <trkpt lat="43.96677" lon="5.34297">
        <ele>526</ele>
        <time>2017-09-01T16:58:18+02:00</time>
      </trkpt>
      <trkpt lat="43.96663" lon="5.34274">
        <ele>527</ele>
        <time>2017-09-01T16:58:35+02:00</time>
      </trkpt>
      <trkpt lat="43.96651" lon="5.34254">
        <ele>527</ele>
        <time>2017-09-01T16:58:53+02:00</time>
      </trkpt>
      <trkpt lat="43.9664" lon="5.34235">
        <ele>526</ele>
        <time>2017-09-01T16:59:11+02:00</time>
      </trkpt>
      <trkpt lat="43.9663" lon="5.34212">
        <ele>524</ele>
        <time>2017-09-01T16:59:28+02:00</time>
      </trkpt>
      <trkpt lat="43.96619" lon="5.34203">
        <ele>524</ele>
        <time>2017-09-01T16:59:28+02:00</time>
      </trkpt>
      <trkpt lat="43.96604" lon="5.34186">
        <ele>524</ele>
        <time>2017-09-01T16:59:45+02:00</time>
      </trkpt>
      <trkpt lat="43.96591" lon="5.34161">
        <ele>522</ele>
        <time>2017-09-01T17:00:08+02:00</time>
      </trkpt>
      <trkpt lat="43.96577" lon="5.34144">
        <ele>521</ele>
        <time>2017-09-01T17:00:27+02:00</time>
      </trkpt>
      <trkpt lat="43.96564" lon="5.3412">
        <ele>519</ele>
        <time>2017-09-01T17:00:44+02:00</time>
      </trkpt>
      <trkpt lat="43.96555" lon="5.34093">
        <ele>515</ele>
        <time>2017-09-01T17:00:58+02:00</time>
      </trkpt>
      <trkpt lat="43.96547" lon="5.34082">
        <ele>514</ele>
        <time>2017-09-01T17:01:15+02:00</time>
      </trkpt>
      <trkpt lat="43.9654" lon="5.34057">
        <ele>512</ele>
        <time>2017-09-01T17:01:31+02:00</time>
      </trkpt>
      <trkpt lat="43.96526" lon="5.34035">
        <ele>510</ele>
        <time>2017-09-01T17:01:47+02:00</time>
      </trkpt>
      <trkpt lat="43.96515" lon="5.34015">
        <ele>508</ele>
        <time>2017-09-01T17:02:05+02:00</time>
      </trkpt>
      <trkpt lat="43.96506" lon="5.33995">
        <ele>506</ele>
        <time>2017-09-01T17:02:05+02:00</time>
      </trkpt>
      <trkpt lat="43.96494" lon="5.3397">
        <ele>504</ele>
        <time>2017-09-01T17:02:24+02:00</time>
      </trkpt>
      <trkpt lat="43.96481" lon="5.33952">
        <ele>503</ele>
        <time>2017-09-01T17:02:40+02:00</time>
      </trkpt>
      <trkpt lat="43.96466" lon="5.33929">
        <ele>500</ele>
        <time>2017-09-01T17:02:55+02:00</time>
      </trkpt>
      <trkpt lat="43.96454" lon="5.33911">
        <ele>498</ele>
        <time>2017-09-01T17:03:12+02:00</time>
      </trkpt>
      <trkpt lat="43.96447" lon="5.33901">
        <ele>498</ele>
        <time>2017-09-01T17:03:28+02:00</time>
      </trkpt>
      <trkpt lat="43.96451" lon="5.33875">
        <ele>492</ele>
        <time>2017-09-01T17:04:12+02:00</time>
      </trkpt>
      <trkpt lat="43.9647" lon="5.33889">
        <ele>492</ele>
        <time>2017-09-01T17:04:44+02:00</time>
      </trkpt>
      <trkpt lat="43.96491" lon="5.33899">
        <ele>491</ele>
        <time>2017-09-01T17:05:04+02:00</time>
      </trkpt>
      <trkpt lat="43.96512" lon="5.33898">
        <ele>488</ele>
        <time>2017-09-01T17:05:19+02:00</time>
      </trkpt>
      <trkpt lat="43.96526" lon="5.3388">
        <ele>484</ele>
        <time>2017-09-01T17:05:36+02:00</time>
      </trkpt>
      <trkpt lat="43.96543" lon="5.33866">
        <ele>479</ele>
        <time>2017-09-01T17:05:52+02:00</time>
      </trkpt>
      <trkpt lat="43.96559" lon="5.33864">
        <ele>476</ele>
        <time>2017-09-01T17:06:12+02:00</time>
      </trkpt>
      <trkpt lat="43.96563" lon="5.33839">
        <ele>470</ele>
        <time>2017-09-01T17:06:12+02:00</time>
      </trkpt>
      <trkpt lat="43.96531" lon="5.33829">
        <ele>473</ele>
        <time>2017-09-01T17:06:12+02:00</time>
      </trkpt>
      <trkpt lat="43.96514" lon="5.3382">
        <ele>474</ele>
        <time>2017-09-01T17:06:35+02:00</time>
      </trkpt>
      <trkpt lat="43.96498" lon="5.33805">
        <ele>473</ele>
        <time>2017-09-01T17:06:51+02:00</time>
      </trkpt>
      <trkpt lat="43.96484" lon="5.33787">
        <ele>471</ele>
        <time>2017-09-01T17:07:08+02:00</time>
      </trkpt>
      <trkpt lat="43.9647" lon="5.33778">
        <ele>470</ele>
        <time>2017-09-01T17:07:25+02:00</time>
      </trkpt>
      <trkpt lat="43.96461" lon="5.33768">
        <ele>468</ele>
        <time>2020-03-13T09:12:29+01:00</time>
      </trkpt>
      <trkpt lat="43.96445" lon="5.33748">
        <ele>464</ele>
        <time>2017-09-01T17:07:38+02:00</time>
      </trkpt>
      <trkpt lat="43.9643" lon="5.33726">
        <ele>461</ele>
        <time>2017-09-01T17:07:55+02:00</time>
      </trkpt>
      <trkpt lat="43.96418" lon="5.33704">
        <ele>458</ele>
        <time>2017-09-01T17:08:27+02:00</time>
      </trkpt>
      <trkpt lat="43.96408" lon="5.3368">
        <ele>453</ele>
        <time>2017-09-01T17:08:45+02:00</time>
      </trkpt>
      <trkpt lat="43.96395" lon="5.33659">
        <ele>447</ele>
        <time>2017-09-01T17:09:38+02:00</time>
      </trkpt>
      <trkpt lat="43.96378" lon="5.33662">
        <ele>446</ele>
        <time>2017-09-01T17:09:38+02:00</time>
      </trkpt>
      <trkpt lat="43.96363" lon="5.33668">
        <ele>447</ele>
        <time>2017-09-01T17:09:55+02:00</time>
      </trkpt>
      <trkpt lat="43.96341" lon="5.33676">
        <ele>447</ele>
        <time>2017-09-01T17:10:12+02:00</time>
      </trkpt>
      <trkpt lat="43.96325" lon="5.33683">
        <ele>448</ele>
        <time>2017-09-01T17:10:28+02:00</time>
      </trkpt>
      <trkpt lat="43.96305" lon="5.33691">
        <ele>448</ele>
        <time>2017-09-01T17:10:45+02:00</time>
      </trkpt>
      <trkpt lat="43.96283" lon="5.33689">
        <ele>445</ele>
        <time>2017-09-01T17:10:58+02:00</time>
      </trkpt>
      <trkpt lat="43.96264" lon="5.33679">
        <ele>438</ele>
        <time>2017-09-01T17:11:16+02:00</time>
      </trkpt>
      <trkpt lat="43.96277" lon="5.33655">
        <ele>432</ele>
        <time>2017-09-01T17:12:35+02:00</time>
      </trkpt>
      <trkpt lat="43.96295" lon="5.33658">
        <ele>435</ele>
        <time>2017-09-01T17:12:51+02:00</time>
      </trkpt>
      <trkpt lat="43.96315" lon="5.33644">
        <ele>434</ele>
        <time>2017-09-01T17:13:08+02:00</time>
      </trkpt>
      <trkpt lat="43.96326" lon="5.33621">
        <ele>429</ele>
        <time>2017-09-01T17:13:25+02:00</time>
      </trkpt>
      <trkpt lat="43.96343" lon="5.33605">
        <ele>426</ele>
        <time>2017-09-01T17:13:25+02:00</time>
      </trkpt>
      <trkpt lat="43.96361" lon="5.33595">
        <ele>425</ele>
        <time>2017-09-01T17:13:56+02:00</time>
      </trkpt>
      <trkpt lat="43.9638" lon="5.33591">
        <ele>426</ele>
        <time>2017-09-01T17:13:56+02:00</time>
      </trkpt>
      <trkpt lat="43.96399" lon="5.33575">
        <ele>426</ele>
        <time>2017-09-01T17:14:29+02:00</time>
      </trkpt>
      <trkpt lat="43.96404" lon="5.33551">
        <ele>423</ele>
        <time>2017-09-01T17:14:55+02:00</time>
      </trkpt>
      <trkpt lat="43.96402" lon="5.33527">
        <ele>420</ele>
        <time>2017-09-01T17:14:55+02:00</time>
      </trkpt>
      <trkpt lat="43.96398" lon="5.33496">
        <ele>416</ele>
        <time>2017-09-01T17:15:37+02:00</time>
      </trkpt>
      <trkpt lat="43.96396" lon="5.33479">
        <ele>417</ele>
        <time>2017-09-01T17:15:51+02:00</time>
      </trkpt>
      <trkpt lat="43.96401" lon="5.33461">
        <ele>418</ele>
        <time>2017-09-01T17:15:51+02:00</time>
      </trkpt>
      <trkpt lat="43.96413" lon="5.33438">
        <ele>420</ele>
        <time>2017-09-01T17:16:08+02:00</time>
      </trkpt>
      <trkpt lat="43.96426" lon="5.33429">
        <ele>422</ele>
        <time>2017-09-01T17:16:22+02:00</time>
      </trkpt>
      <trkpt lat="43.96442" lon="5.33436">
        <ele>424</ele>
        <time>2017-09-01T17:16:22+02:00</time>
      </trkpt>
    </trkseg>
  </trk>
</gpx>